Year,Month,Day,Hour,Minute,Value (Times are PST for temperature in C)
2007,08,01,00,00,17.70
2007,08,01,00,01,17.80
2007,08,01,00,02,17.90
2007,08,01,00,03,18.00
2007,08,01,00,04,18.00
2007,08,01,00,05,18.10
2007,08,01,00,06,18.10
2007,08,01,00,07,18.10
2007,08,01,00,08,18.10
2007,08,01,00,09,18.10
2007,08,01,00,10,18.10
2007,08,01,00,11,18.20
2007,08,01,00,12,18.20
2007,08,01,00,13,18.20
2007,08,01,00,14,18.20
2007,08,01,00,15,18.20
2007,08,01,00,16,18.20
2007,08,01,00,17,18.20
2007,08,01,00,18,18.20
2007,08,01,00,19,18.20
2007,08,01,00,20,18.20
2007,08,01,00,21,18.10
2007,08,01,00,22,18.10
2007,08,01,00,23,18.10
2007,08,01,00,24,18.10
2007,08,01,00,25,18.10
2007,08,01,00,26,18.00
2007,08,01,00,27,17.90
2007,08,01,00,28,17.80
2007,08,01,00,29,17.70
2007,08,01,00,30,17.60
2007,08,01,00,31,17.40
2007,08,01,00,32,17.30
2007,08,01,00,33,17.20
2007,08,01,00,34,17.00
2007,08,01,00,35,16.90
2007,08,01,00,36,16.80
2007,08,01,00,37,16.70
2007,08,01,00,38,16.60
2007,08,01,00,39,16.50
2007,08,01,00,40,16.50
2007,08,01,00,41,16.40
2007,08,01,00,42,16.30
2007,08,01,00,43,16.10
2007,08,01,00,44,16.00
2007,08,01,00,45,15.80
2007,08,01,00,46,15.70
2007,08,01,00,47,15.60
2007,08,01,00,48,15.50
2007,08,01,00,49,15.50
2007,08,01,00,50,15.40
2007,08,01,00,51,15.30
2007,08,01,00,52,15.30
2007,08,01,00,53,15.20
2007,08,01,00,54,15.10
2007,08,01,00,55,15.00
2007,08,01,00,56,15.00
2007,08,01,00,57,15.00
2007,08,01,00,58,15.00
2007,08,01,00,59,15.00
2007,08,01,01,00,14.90
2007,08,01,01,01,14.80
2007,08,01,01,02,14.80
2007,08,01,01,03,14.80
2007,08,01,01,04,14.80
2007,08,01,01,05,14.70
2007,08,01,01,06,14.70
2007,08,01,01,07,14.70
2007,08,01,01,08,14.70
2007,08,01,01,09,14.70
2007,08,01,01,10,14.60
2007,08,01,01,11,14.60
2007,08,01,01,12,14.60
2007,08,01,01,13,14.60
2007,08,01,01,14,14.60
2007,08,01,01,15,14.60
2007,08,01,01,16,14.60
2007,08,01,01,17,14.60
2007,08,01,01,18,14.50
2007,08,01,01,19,14.50
2007,08,01,01,20,14.50
2007,08,01,01,21,14.40
2007,08,01,01,22,14.40
2007,08,01,01,23,14.40
2007,08,01,01,24,14.30
2007,08,01,01,25,14.30
2007,08,01,01,26,14.30
2007,08,01,01,27,14.20
2007,08,01,01,28,14.20
2007,08,01,01,29,14.10
2007,08,01,01,30,14.10
2007,08,01,01,31,14.10
2007,08,01,01,32,14.10
2007,08,01,01,33,14.00
2007,08,01,01,34,14.10
2007,08,01,01,35,14.10
2007,08,01,01,36,14.10
2007,08,01,01,37,14.10
2007,08,01,01,38,14.20
2007,08,01,01,39,14.20
2007,08,01,01,40,14.20
2007,08,01,01,41,14.20
2007,08,01,01,42,14.20
2007,08,01,01,43,14.20
2007,08,01,01,44,14.20
2007,08,01,01,45,14.20
2007,08,01,01,46,14.20
2007,08,01,01,47,14.20
2007,08,01,01,48,14.20
2007,08,01,01,49,14.20
2007,08,01,01,50,14.20
2007,08,01,01,51,14.20
2007,08,01,01,52,14.20
2007,08,01,01,53,14.10
2007,08,01,01,54,14.10
2007,08,01,01,55,14.10
2007,08,01,01,56,14.10
2007,08,01,01,57,14.00
2007,08,01,01,58,14.00
2007,08,01,01,59,14.00
2007,08,01,02,00,14.00
2007,08,01,02,01,14.00
2007,08,01,02,02,14.00
2007,08,01,02,03,14.00
2007,08,01,02,04,14.00
2007,08,01,02,05,14.10
2007,08,01,02,06,14.20
2007,08,01,02,07,14.20
2007,08,01,02,08,14.30
2007,08,01,02,09,14.30
2007,08,01,02,10,14.40
2007,08,01,02,11,14.40
2007,08,01,02,12,14.50
2007,08,01,02,13,14.50
2007,08,01,02,14,14.60
2007,08,01,02,15,14.60
2007,08,01,02,16,14.60
2007,08,01,02,17,14.70
2007,08,01,02,18,14.80
2007,08,01,02,19,15.00
2007,08,01,02,20,15.00
2007,08,01,02,21,15.00
2007,08,01,02,22,15.20
2007,08,01,02,23,15.20
2007,08,01,02,24,15.30
2007,08,01,02,25,15.30
2007,08,01,02,26,15.20
2007,08,01,02,27,15.20
2007,08,01,02,28,15.10
2007,08,01,02,29,15.10
2007,08,01,02,30,15.00
2007,08,01,02,31,15.00
2007,08,01,02,32,15.00
2007,08,01,02,33,15.00
2007,08,01,02,34,15.00
2007,08,01,02,35,15.00
2007,08,01,02,36,15.00
2007,08,01,02,37,15.00
2007,08,01,02,38,15.00
2007,08,01,02,39,15.00
2007,08,01,02,40,15.00
2007,08,01,02,41,15.00
2007,08,01,02,42,15.00
2007,08,01,02,43,15.00
2007,08,01,02,44,15.00
2007,08,01,02,45,15.00
2007,08,01,02,46,14.90
2007,08,01,02,47,14.80
2007,08,01,02,48,14.80
2007,08,01,02,49,14.70
2007,08,01,02,50,14.60
2007,08,01,02,51,14.60
2007,08,01,02,52,14.50
2007,08,01,02,53,14.40
2007,08,01,02,54,14.40
2007,08,01,02,55,14.30
2007,08,01,02,56,14.30
2007,08,01,02,57,14.20
2007,08,01,02,58,14.20
2007,08,01,02,59,14.20
2007,08,01,03,00,14.10
2007,08,01,03,01,14.10
2007,08,01,03,02,14.00
2007,08,01,03,03,14.00
2007,08,01,03,04,14.00
2007,08,01,03,05,13.90
2007,08,01,03,06,13.90
2007,08,01,03,07,13.90
2007,08,01,03,08,13.90
2007,08,01,03,09,13.80
2007,08,01,03,10,13.80
2007,08,01,03,11,13.80
2007,08,01,03,12,13.80
2007,08,01,03,13,13.70
2007,08,01,03,14,13.70
2007,08,01,03,15,13.70
2007,08,01,03,16,13.70
2007,08,01,03,17,13.70
2007,08,01,03,18,13.70
2007,08,01,03,19,13.70
2007,08,01,03,20,13.70
2007,08,01,03,21,13.60
2007,08,01,03,22,13.60
2007,08,01,03,23,13.60
2007,08,01,03,24,13.60
2007,08,01,03,25,13.50
2007,08,01,03,26,13.50
2007,08,01,03,27,13.40
2007,08,01,03,28,13.40
2007,08,01,03,29,13.40
2007,08,01,03,30,13.30
2007,08,01,03,31,13.30
2007,08,01,03,32,13.30
2007,08,01,03,33,13.30
2007,08,01,03,34,13.30
2007,08,01,03,35,13.30
2007,08,01,03,36,13.30
2007,08,01,03,37,13.30
2007,08,01,03,38,13.30
2007,08,01,03,39,13.30
2007,08,01,03,40,13.30
2007,08,01,03,41,13.20
2007,08,01,03,42,13.20
2007,08,01,03,43,13.20
2007,08,01,03,44,13.20
2007,08,01,03,45,13.20
2007,08,01,03,46,13.20
2007,08,01,03,47,13.20
2007,08,01,03,48,13.20
2007,08,01,03,49,13.30
2007,08,01,03,50,13.40
2007,08,01,03,51,13.50
2007,08,01,03,52,13.60
2007,08,01,03,53,13.70
2007,08,01,03,54,13.80
2007,08,01,03,55,13.80
2007,08,01,03,56,13.90
2007,08,01,03,57,13.90
2007,08,01,03,58,13.90
2007,08,01,03,59,13.90
2007,08,01,04,00,13.90
2007,08,01,04,01,13.80
2007,08,01,04,02,13.80
2007,08,01,04,03,13.80
2007,08,01,04,04,13.80
2007,08,01,04,05,13.70
2007,08,01,04,06,13.70
2007,08,01,04,07,13.70
2007,08,01,04,08,13.70
2007,08,01,04,09,13.80
2007,08,01,04,10,13.90
2007,08,01,04,11,14.00
2007,08,01,04,12,14.10
2007,08,01,04,13,14.20
2007,08,01,04,14,14.40
2007,08,01,04,15,14.50
2007,08,01,04,16,14.60
2007,08,01,04,17,14.60
2007,08,01,04,18,14.70
2007,08,01,04,19,14.70
2007,08,01,04,20,14.70
2007,08,01,04,21,14.70
2007,08,01,04,22,14.70
2007,08,01,04,23,14.80
2007,08,01,04,24,14.80
2007,08,01,04,25,14.80
2007,08,01,04,26,14.90
2007,08,01,04,27,14.90
2007,08,01,04,28,15.00
2007,08,01,04,29,15.00
2007,08,01,04,30,15.00
2007,08,01,04,31,15.00
2007,08,01,04,32,15.00
2007,08,01,04,33,15.00
2007,08,01,04,34,15.00
2007,08,01,04,35,15.00
2007,08,01,04,36,15.00
2007,08,01,04,37,15.00
2007,08,01,04,38,15.00
2007,08,01,04,39,15.00
2007,08,01,04,40,15.10
2007,08,01,04,41,15.20
2007,08,01,04,42,15.30
2007,08,01,04,43,15.40
2007,08,01,04,44,15.40
2007,08,01,04,45,15.50
2007,08,01,04,46,15.60
2007,08,01,04,47,15.70
2007,08,01,04,48,15.80
2007,08,01,04,49,15.90
2007,08,01,04,50,15.90
2007,08,01,04,51,15.90
2007,08,01,04,52,15.90
2007,08,01,04,53,15.90
2007,08,01,04,54,15.90
2007,08,01,04,55,15.90
2007,08,01,04,56,15.90
2007,08,01,04,57,15.80
2007,08,01,04,58,15.80
2007,08,01,04,59,15.80
2007,08,01,05,00,15.80
2007,08,01,05,01,15.80
2007,08,01,05,02,15.80
2007,08,01,05,03,15.80
2007,08,01,05,04,15.80
2007,08,01,05,05,15.80
2007,08,01,05,06,15.70
2007,08,01,05,07,15.70
2007,08,01,05,08,15.70
2007,08,01,05,09,15.70
2007,08,01,05,10,15.70
2007,08,01,05,11,15.70
2007,08,01,05,12,15.60
2007,08,01,05,13,15.60
2007,08,01,05,14,15.60
2007,08,01,05,15,15.60
2007,08,01,05,16,15.60
2007,08,01,05,17,15.60
2007,08,01,05,18,15.60
2007,08,01,05,19,15.60
2007,08,01,05,20,15.70
2007,08,01,05,21,15.70
2007,08,01,05,22,15.70
2007,08,01,05,23,15.70
2007,08,01,05,24,15.70
2007,08,01,05,25,15.70
2007,08,01,05,26,15.70
2007,08,01,05,27,15.70
2007,08,01,05,28,15.80
2007,08,01,05,29,15.80
2007,08,01,05,30,15.80
2007,08,01,05,31,15.90
2007,08,01,05,32,15.90
2007,08,01,05,33,16.00
2007,08,01,05,34,16.00
2007,08,01,05,35,16.00
2007,08,01,05,36,16.00
2007,08,01,05,37,16.00
2007,08,01,05,38,16.00
2007,08,01,05,39,16.00
2007,08,01,05,40,16.00
2007,08,01,05,41,15.90
2007,08,01,05,42,15.90
2007,08,01,05,43,15.90
2007,08,01,05,44,15.90
2007,08,01,05,45,15.90
2007,08,01,05,46,15.90
2007,08,01,05,47,15.90
2007,08,01,05,48,15.90
2007,08,01,05,49,15.90
2007,08,01,05,50,15.90
2007,08,01,05,51,15.90
2007,08,01,05,52,15.90
2007,08,01,05,53,15.90
2007,08,01,05,54,15.90
2007,08,01,05,55,15.90
2007,08,01,05,56,15.90
2007,08,01,05,57,15.90
2007,08,01,05,58,15.90
2007,08,01,05,59,15.80
2007,08,01,06,00,15.80
2007,08,01,06,01,15.80
2007,08,01,06,02,15.80
2007,08,01,06,03,15.80
2007,08,01,06,04,15.80
2007,08,01,06,05,15.80
2007,08,01,06,06,15.80
2007,08,01,06,07,15.80
2007,08,01,06,08,15.80
2007,08,01,06,09,15.80
2007,08,01,06,10,15.80
2007,08,01,06,11,15.80
2007,08,01,06,12,15.80
2007,08,01,06,13,15.90
2007,08,01,06,14,15.90
2007,08,01,06,15,15.90
2007,08,01,06,16,15.90
2007,08,01,06,17,15.90
2007,08,01,06,18,16.00
2007,08,01,06,19,16.00
2007,08,01,06,20,16.00
2007,08,01,06,21,16.00
2007,08,01,06,22,16.10
2007,08,01,06,23,16.10
2007,08,01,06,24,16.10
2007,08,01,06,25,16.20
2007,08,01,06,26,16.20
2007,08,01,06,27,16.20
2007,08,01,06,28,16.20
2007,08,01,06,29,16.30
2007,08,01,06,30,16.30
2007,08,01,06,31,16.30
2007,08,01,06,32,16.30
2007,08,01,06,33,16.40
2007,08,01,06,34,16.40
2007,08,01,06,35,16.40
2007,08,01,06,36,16.40
2007,08,01,06,37,16.40
2007,08,01,06,38,16.50
2007,08,01,06,39,16.50
2007,08,01,06,40,16.50
2007,08,01,06,41,16.60
2007,08,01,06,42,16.60
2007,08,01,06,43,16.70
2007,08,01,06,44,16.70
2007,08,01,06,45,16.70
2007,08,01,06,46,16.70
2007,08,01,06,47,16.80
2007,08,01,06,48,16.80
2007,08,01,06,49,16.80
2007,08,01,06,50,16.90
2007,08,01,06,51,16.90
2007,08,01,06,52,16.90
2007,08,01,06,53,16.90
2007,08,01,06,54,17.00
2007,08,01,06,55,17.00
2007,08,01,06,56,17.00
2007,08,01,06,57,17.10
2007,08,01,06,58,17.10
2007,08,01,06,59,17.20
2007,08,01,07,00,17.20
2007,08,01,07,01,17.20
2007,08,01,07,02,17.20
2007,08,01,07,03,17.30
2007,08,01,07,04,17.30
2007,08,01,07,05,17.30
2007,08,01,07,06,17.30
2007,08,01,07,07,17.30
2007,08,01,07,08,17.40
2007,08,01,07,09,17.40
2007,08,01,07,10,17.40
2007,08,01,07,11,17.40
2007,08,01,07,12,17.50
2007,08,01,07,13,17.50
2007,08,01,07,14,17.60
2007,08,01,07,15,17.60
2007,08,01,07,16,17.60
2007,08,01,07,17,17.60
2007,08,01,07,18,17.70
2007,08,01,07,19,17.70
2007,08,01,07,20,17.70
2007,08,01,07,21,17.80
2007,08,01,07,22,17.80
2007,08,01,07,23,17.80
2007,08,01,07,24,17.80
2007,08,01,07,25,17.90
2007,08,01,07,26,17.90
2007,08,01,07,27,17.90
2007,08,01,07,28,18.00
2007,08,01,07,29,18.00
2007,08,01,07,30,18.00
2007,08,01,07,31,18.10
2007,08,01,07,32,18.10
2007,08,01,07,33,18.10
2007,08,01,07,34,18.10
2007,08,01,07,35,18.20
2007,08,01,07,36,18.20
2007,08,01,07,37,18.20
2007,08,01,07,38,18.20
2007,08,01,07,39,18.20
2007,08,01,07,40,18.30
2007,08,01,07,41,18.30
2007,08,01,07,42,18.30
2007,08,01,07,43,18.30
2007,08,01,07,44,18.30
2007,08,01,07,45,18.30
2007,08,01,07,46,18.40
2007,08,01,07,47,18.40
2007,08,01,07,48,18.40
2007,08,01,07,49,18.50
2007,08,01,07,50,18.50
2007,08,01,07,51,18.60
2007,08,01,07,52,18.60
2007,08,01,07,53,18.60
2007,08,01,07,54,18.60
2007,08,01,07,55,18.70
2007,08,01,07,56,18.70
2007,08,01,07,57,18.80
2007,08,01,07,58,18.80
2007,08,01,07,59,18.80
2007,08,01,08,00,18.80
2007,08,01,08,01,18.90
2007,08,01,08,02,18.90
2007,08,01,08,03,18.90
2007,08,01,08,04,18.90
2007,08,01,08,05,18.90
2007,08,01,08,06,18.90
2007,08,01,08,07,18.90
2007,08,01,08,08,18.90
2007,08,01,08,09,18.90
2007,08,01,08,10,18.90
2007,08,01,08,11,19.00
2007,08,01,08,12,19.00
2007,08,01,08,13,19.00
2007,08,01,08,14,19.10
2007,08,01,08,15,19.10
2007,08,01,08,16,19.10
2007,08,01,08,17,19.10
2007,08,01,08,18,19.20
2007,08,01,08,19,19.20
2007,08,01,08,20,19.20
2007,08,01,08,21,19.30
2007,08,01,08,22,19.40
2007,08,01,08,23,19.40
2007,08,01,08,24,19.40
2007,08,01,08,25,19.40
2007,08,01,08,26,19.40
2007,08,01,08,27,19.40
2007,08,01,08,28,19.40
2007,08,01,08,29,19.40
2007,08,01,08,30,19.40
2007,08,01,08,31,19.40
2007,08,01,08,32,19.40
2007,08,01,08,33,19.50
2007,08,01,08,34,19.50
2007,08,01,08,35,19.50
2007,08,01,08,36,19.60
2007,08,01,08,37,19.60
2007,08,01,08,38,19.60
2007,08,01,08,39,19.60
2007,08,01,08,40,19.70
2007,08,01,08,41,19.70
2007,08,01,08,42,19.80
2007,08,01,08,43,19.80
2007,08,01,08,44,19.70
2007,08,01,08,45,19.70
2007,08,01,08,46,19.70
2007,08,01,08,47,19.70
2007,08,01,08,48,19.70
2007,08,01,08,49,19.80
2007,08,01,08,50,19.80
2007,08,01,08,51,19.80
2007,08,01,08,52,19.90
2007,08,01,08,53,19.90
2007,08,01,08,54,19.90
2007,08,01,08,55,19.90
2007,08,01,08,56,19.90
2007,08,01,08,57,20.00
2007,08,01,08,58,20.10
2007,08,01,08,59,20.00
2007,08,01,09,00,20.00
2007,08,01,09,01,20.00
2007,08,01,09,02,20.00
2007,08,01,09,03,20.00
2007,08,01,09,04,20.00
2007,08,01,09,05,20.00
2007,08,01,09,06,20.00
2007,08,01,09,07,20.00
2007,08,01,09,08,20.10
2007,08,01,09,09,20.20
2007,08,01,09,10,20.30
2007,08,01,09,11,20.30
2007,08,01,09,12,20.20
2007,08,01,09,13,20.20
2007,08,01,09,14,20.20
2007,08,01,09,15,20.20
2007,08,01,09,16,20.20
2007,08,01,09,17,20.20
2007,08,01,09,18,20.20
2007,08,01,09,19,20.20
2007,08,01,09,20,20.20
2007,08,01,09,21,20.20
2007,08,01,09,22,20.20
2007,08,01,09,23,20.10
2007,08,01,09,24,20.10
2007,08,01,09,25,20.00
2007,08,01,09,26,20.00
2007,08,01,09,27,20.00
2007,08,01,09,28,20.10
2007,08,01,09,29,20.10
2007,08,01,09,30,20.10
2007,08,01,09,31,20.10
2007,08,01,09,32,20.10
2007,08,01,09,33,20.10
2007,08,01,09,34,20.10
2007,08,01,09,35,20.10
2007,08,01,09,36,20.10
2007,08,01,09,37,20.10
2007,08,01,09,38,20.20
2007,08,01,09,39,20.20
2007,08,01,09,40,20.30
2007,08,01,09,41,20.30
2007,08,01,09,42,20.40
2007,08,01,09,43,20.40
2007,08,01,09,44,20.30
2007,08,01,09,45,20.20
2007,08,01,09,46,20.20
2007,08,01,09,47,20.20
2007,08,01,09,48,20.20
2007,08,01,09,49,20.30
2007,08,01,09,50,20.30
2007,08,01,09,51,20.40
2007,08,01,09,52,20.50
2007,08,01,09,53,20.60
2007,08,01,09,54,20.60
2007,08,01,09,55,20.70
2007,08,01,09,56,20.70
2007,08,01,09,57,20.70
2007,08,01,09,58,20.70
2007,08,01,09,59,20.60
2007,08,01,10,00,20.60
2007,08,01,10,01,20.60
2007,08,01,10,02,20.60
2007,08,01,10,03,20.60
2007,08,01,10,04,20.70
2007,08,01,10,05,20.70
2007,08,01,10,06,20.70
2007,08,01,10,07,20.80
2007,08,01,10,08,20.80
2007,08,01,10,09,20.80
2007,08,01,10,10,20.80
2007,08,01,10,11,20.90
2007,08,01,10,12,20.90
2007,08,01,10,13,21.00
2007,08,01,10,14,21.10
2007,08,01,10,15,21.10
2007,08,01,10,16,21.10
2007,08,01,10,17,21.10
2007,08,01,10,18,21.20
2007,08,01,10,19,21.20
2007,08,01,10,20,21.10
2007,08,01,10,21,21.10
2007,08,01,10,22,21.10
2007,08,01,10,23,21.10
2007,08,01,10,24,21.10
2007,08,01,10,25,21.10
2007,08,01,10,26,21.10
2007,08,01,10,27,21.10
2007,08,01,10,28,21.10
2007,08,01,10,29,21.20
2007,08,01,10,30,21.20
2007,08,01,10,31,21.30
2007,08,01,10,32,21.30
2007,08,01,10,33,21.30
2007,08,01,10,34,21.30
2007,08,01,10,35,21.30
2007,08,01,10,36,21.30
2007,08,01,10,37,21.30
2007,08,01,10,38,21.30
2007,08,01,10,39,21.30
2007,08,01,10,40,21.30
2007,08,01,10,41,21.30
2007,08,01,10,42,21.30
2007,08,01,10,43,21.40
2007,08,01,10,44,21.50
2007,08,01,10,45,21.60
2007,08,01,10,46,21.60
2007,08,01,10,47,21.70
2007,08,01,10,48,21.70
2007,08,01,10,49,21.80
2007,08,01,10,50,21.80
2007,08,01,10,51,21.70
2007,08,01,10,52,21.70
2007,08,01,10,53,21.60
2007,08,01,10,54,21.60
2007,08,01,10,55,21.60
2007,08,01,10,56,21.60
2007,08,01,10,57,21.60
2007,08,01,10,58,21.60
2007,08,01,10,59,21.60
2007,08,01,11,00,21.60
2007,08,01,11,01,21.50
2007,08,01,11,02,21.50
2007,08,01,11,03,21.50
2007,08,01,11,04,21.60
2007,08,01,11,05,21.70
2007,08,01,11,06,21.70
2007,08,01,11,07,21.70
2007,08,01,11,08,21.70
2007,08,01,11,09,21.80
2007,08,01,11,10,21.80
2007,08,01,11,11,21.80
2007,08,01,11,12,21.80
2007,08,01,11,13,21.80
2007,08,01,11,14,21.80
2007,08,01,11,15,21.80
2007,08,01,11,16,21.80
2007,08,01,11,17,21.80
2007,08,01,11,18,21.80
2007,08,01,11,19,21.90
2007,08,01,11,20,22.00
2007,08,01,11,21,22.10
2007,08,01,11,22,22.10
2007,08,01,11,23,22.10
2007,08,01,11,24,22.10
2007,08,01,11,25,22.10
2007,08,01,11,26,22.10
2007,08,01,11,27,22.20
2007,08,01,11,28,22.20
2007,08,01,11,29,22.30
2007,08,01,11,30,22.30
2007,08,01,11,31,22.40
2007,08,01,11,32,22.40
2007,08,01,11,33,22.30
2007,08,01,11,34,22.30
2007,08,01,11,35,22.30
2007,08,01,11,36,22.30
2007,08,01,11,37,22.30
2007,08,01,11,38,22.30
2007,08,01,11,39,22.30
2007,08,01,11,40,22.20
2007,08,01,11,41,22.20
2007,08,01,11,42,22.20
2007,08,01,11,43,22.30
2007,08,01,11,44,22.20
2007,08,01,11,45,22.20
2007,08,01,11,46,22.20
2007,08,01,11,47,22.30
2007,08,01,11,48,22.30
2007,08,01,11,49,22.40
2007,08,01,11,50,22.40
2007,08,01,11,51,22.50
2007,08,01,11,52,22.50
2007,08,01,11,53,22.50
2007,08,01,11,54,22.40
2007,08,01,11,55,22.40
2007,08,01,11,56,22.40
2007,08,01,11,57,22.40
2007,08,01,11,58,22.30
2007,08,01,11,59,22.30
2007,08,01,12,00,22.40
2007,08,01,12,01,22.50
2007,08,01,12,02,22.50
2007,08,01,12,03,22.50
2007,08,01,12,04,22.60
2007,08,01,12,05,22.70
2007,08,01,12,06,22.80
2007,08,01,12,07,22.80
2007,08,01,12,08,22.70
2007,08,01,12,09,22.70
2007,08,01,12,10,22.70
2007,08,01,12,11,22.70
2007,08,01,12,12,22.60
2007,08,01,12,13,22.60
2007,08,01,12,14,22.60
2007,08,01,12,15,22.70
2007,08,01,12,16,22.70
2007,08,01,12,17,22.70
2007,08,01,12,18,22.70
2007,08,01,12,19,22.70
2007,08,01,12,20,22.70
2007,08,01,12,21,22.70
2007,08,01,12,22,22.70
2007,08,01,12,23,22.70
2007,08,01,12,24,22.70
2007,08,01,12,25,22.70
2007,08,01,12,26,22.60
2007,08,01,12,27,22.60
2007,08,01,12,28,22.60
2007,08,01,12,29,22.60
2007,08,01,12,30,22.60
2007,08,01,12,31,22.70
2007,08,01,12,32,22.70
2007,08,01,12,33,22.60
2007,08,01,12,34,22.70
2007,08,01,12,35,22.50
2007,08,01,12,36,22.30
2007,08,01,12,37,22.20
2007,08,01,12,38,22.20
2007,08,01,12,39,22.20
2007,08,01,12,40,22.20
2007,08,01,12,41,22.20
2007,08,01,12,42,22.20
2007,08,01,12,43,22.20
2007,08,01,12,44,22.20
2007,08,01,12,45,22.30
2007,08,01,12,46,22.30
2007,08,01,12,47,22.30
2007,08,01,12,48,22.30
2007,08,01,12,49,22.30
2007,08,01,12,50,22.30
2007,08,01,12,51,22.20
2007,08,01,12,52,22.10
2007,08,01,12,53,22.00
2007,08,01,12,54,22.00
2007,08,01,12,55,22.00
2007,08,01,12,56,21.90
2007,08,01,12,57,21.90
2007,08,01,12,58,21.90
2007,08,01,12,59,21.80
2007,08,01,13,00,21.70
2007,08,01,13,01,21.60
2007,08,01,13,02,21.50
2007,08,01,13,03,21.50
2007,08,01,13,04,21.50
2007,08,01,13,05,21.60
2007,08,01,13,06,21.60
2007,08,01,13,07,21.60
2007,08,01,13,08,21.70
2007,08,01,13,09,21.80
2007,08,01,13,10,21.80
2007,08,01,13,11,21.90
2007,08,01,13,12,22.00
2007,08,01,13,13,22.10
2007,08,01,13,14,22.10
2007,08,01,13,15,22.00
2007,08,01,13,16,21.90
2007,08,01,13,17,21.80
2007,08,01,13,18,21.80
2007,08,01,13,19,21.80
2007,08,01,13,20,21.80
2007,08,01,13,21,21.80
2007,08,01,13,22,21.80
2007,08,01,13,23,21.80
2007,08,01,13,24,21.80
2007,08,01,13,25,21.80
2007,08,01,13,26,21.80
2007,08,01,13,27,21.70
2007,08,01,13,28,21.70
2007,08,01,13,29,21.70
2007,08,01,13,30,21.60
2007,08,01,13,31,21.60
2007,08,01,13,32,21.70
2007,08,01,13,33,21.70
2007,08,01,13,34,21.70
2007,08,01,13,35,21.80
2007,08,01,13,36,21.80
2007,08,01,13,37,21.80
2007,08,01,13,38,21.90
2007,08,01,13,39,22.00
2007,08,01,13,40,22.10
2007,08,01,13,41,22.20
2007,08,01,13,42,22.30
2007,08,01,13,43,22.40
2007,08,01,13,44,22.50
2007,08,01,13,45,22.60
2007,08,01,13,46,22.60
2007,08,01,13,47,22.60
2007,08,01,13,48,22.70
2007,08,01,13,49,22.70
2007,08,01,13,50,22.80
2007,08,01,13,51,22.80
2007,08,01,13,52,22.90
2007,08,01,13,53,22.90
2007,08,01,13,54,23.00
2007,08,01,13,55,23.00
2007,08,01,13,56,23.10
2007,08,01,13,57,23.20
2007,08,01,13,58,23.30
2007,08,01,13,59,23.30
2007,08,01,14,00,23.30
2007,08,01,14,01,23.20
2007,08,01,14,02,23.20
2007,08,01,14,03,23.30
2007,08,01,14,04,23.30
2007,08,01,14,05,23.20
2007,08,01,14,06,23.10
2007,08,01,14,07,23.10
2007,08,01,14,08,23.00
2007,08,01,14,09,23.00
2007,08,01,14,10,23.10
2007,08,01,14,11,23.20
2007,08,01,14,12,23.30
2007,08,01,14,13,23.30
2007,08,01,14,14,23.40
2007,08,01,14,15,23.40
2007,08,01,14,16,23.50
2007,08,01,14,17,23.60
2007,08,01,14,18,23.70
2007,08,01,14,19,23.70
2007,08,01,14,20,23.80
2007,08,01,14,21,23.90
2007,08,01,14,22,23.90
2007,08,01,14,23,24.00
2007,08,01,14,24,24.00
2007,08,01,14,25,24.10
2007,08,01,14,26,24.10
2007,08,01,14,27,24.10
2007,08,01,14,28,24.20
2007,08,01,14,29,24.20
2007,08,01,14,30,24.10
2007,08,01,14,31,24.10
2007,08,01,14,32,24.10
2007,08,01,14,33,24.10
2007,08,01,14,34,24.10
2007,08,01,14,35,24.20
2007,08,01,14,36,24.20
2007,08,01,14,37,24.30
2007,08,01,14,38,24.30
2007,08,01,14,39,24.40
2007,08,01,14,40,24.50
2007,08,01,14,41,24.60
2007,08,01,14,42,24.70
2007,08,01,14,43,24.80
2007,08,01,14,44,24.90
2007,08,01,14,45,24.90
2007,08,01,14,46,24.90
2007,08,01,14,47,24.90
2007,08,01,14,48,24.90
2007,08,01,14,49,24.90
2007,08,01,14,50,25.00
2007,08,01,14,51,25.00
2007,08,01,14,52,25.10
2007,08,01,14,53,25.10
2007,08,01,14,54,25.10
2007,08,01,14,55,25.10
2007,08,01,14,56,25.10
2007,08,01,14,57,25.10
2007,08,01,14,58,25.10
2007,08,01,14,59,25.10
2007,08,01,15,00,25.10
2007,08,01,15,01,25.10
2007,08,01,15,02,25.20
2007,08,01,15,03,25.20
2007,08,01,15,04,25.20
2007,08,01,15,05,25.20
2007,08,01,15,06,25.20
2007,08,01,15,07,25.30
2007,08,01,15,08,25.40
2007,08,01,15,09,25.40
2007,08,01,15,10,25.30
2007,08,01,15,11,25.30
2007,08,01,15,12,25.30
2007,08,01,15,13,25.30
2007,08,01,15,14,25.30
2007,08,01,15,15,25.30
2007,08,01,15,16,25.30
2007,08,01,15,17,25.20
2007,08,01,15,18,25.20
2007,08,01,15,19,25.30
2007,08,01,15,20,25.30
2007,08,01,15,21,25.30
2007,08,01,15,22,25.30
2007,08,01,15,23,25.40
2007,08,01,15,24,25.30
2007,08,01,15,25,25.30
2007,08,01,15,26,25.30
2007,08,01,15,27,25.20
2007,08,01,15,28,25.20
2007,08,01,15,29,25.30
2007,08,01,15,30,25.30
2007,08,01,15,31,25.20
2007,08,01,15,32,25.30
2007,08,01,15,33,25.30
2007,08,01,15,34,25.30
2007,08,01,15,35,25.30
2007,08,01,15,36,25.30
2007,08,01,15,37,25.30
2007,08,01,15,38,25.30
2007,08,01,15,39,25.30
2007,08,01,15,40,25.30
2007,08,01,15,41,25.30
2007,08,01,15,42,25.40
2007,08,01,15,43,25.40
2007,08,01,15,44,25.40
2007,08,01,15,45,25.40
2007,08,01,15,46,25.40
2007,08,01,15,47,25.50
2007,08,01,15,48,25.50
2007,08,01,15,49,25.50
2007,08,01,15,50,25.50
2007,08,01,15,51,25.60
2007,08,01,15,52,25.60
2007,08,01,15,53,25.60
2007,08,01,15,54,25.60
2007,08,01,15,55,25.60
2007,08,01,15,56,25.60
2007,08,01,15,57,25.70
2007,08,01,15,58,25.80
2007,08,01,15,59,25.90
2007,08,01,16,00,25.90
2007,08,01,16,01,25.90
2007,08,01,16,02,25.90
2007,08,01,16,03,25.90
2007,08,01,16,04,25.90
2007,08,01,16,05,25.90
2007,08,01,16,06,25.90
2007,08,01,16,07,25.90
2007,08,01,16,08,26.00
2007,08,01,16,09,25.90
2007,08,01,16,10,25.90
2007,08,01,16,11,25.90
2007,08,01,16,12,25.90
2007,08,01,16,13,25.90
2007,08,01,16,14,25.80
2007,08,01,16,15,25.80
2007,08,01,16,16,25.80
2007,08,01,16,17,25.80
2007,08,01,16,18,25.80
2007,08,01,16,19,25.70
2007,08,01,16,20,25.70
2007,08,01,16,21,25.70
2007,08,01,16,22,25.80
2007,08,01,16,23,25.80
2007,08,01,16,24,25.80
2007,08,01,16,25,25.80
2007,08,01,16,26,25.90
2007,08,01,16,27,25.90
2007,08,01,16,28,25.90
2007,08,01,16,29,26.00
2007,08,01,16,30,26.10
2007,08,01,16,31,26.10
2007,08,01,16,32,26.10
2007,08,01,16,33,26.10
2007,08,01,16,34,26.10
2007,08,01,16,35,26.20
2007,08,01,16,36,26.20
2007,08,01,16,37,26.20
2007,08,01,16,38,26.20
2007,08,01,16,39,26.20
2007,08,01,16,40,26.10
2007,08,01,16,41,26.00
2007,08,01,16,42,26.00
2007,08,01,16,43,25.90
2007,08,01,16,44,25.80
2007,08,01,16,45,25.70
2007,08,01,16,46,25.60
2007,08,01,16,47,25.50
2007,08,01,16,48,25.40
2007,08,01,16,49,25.40
2007,08,01,16,50,25.30
2007,08,01,16,51,25.30
2007,08,01,16,52,25.20
2007,08,01,16,53,25.20
2007,08,01,16,54,25.30
2007,08,01,16,55,25.30
2007,08,01,16,56,25.40
2007,08,01,16,57,25.40
2007,08,01,16,58,25.40
2007,08,01,16,59,25.40
2007,08,01,17,00,25.30
2007,08,01,17,01,25.30
2007,08,01,17,02,25.30
2007,08,01,17,03,25.30
2007,08,01,17,04,25.40
2007,08,01,17,05,25.30
2007,08,01,17,06,25.40
2007,08,01,17,07,25.40
2007,08,01,17,08,25.50
2007,08,01,17,09,25.50
2007,08,01,17,10,25.60
2007,08,01,17,11,25.70
2007,08,01,17,12,25.80
2007,08,01,17,13,25.80
2007,08,01,17,14,25.80
2007,08,01,17,15,25.80
2007,08,01,17,16,25.80
2007,08,01,17,17,25.80
2007,08,01,17,18,25.70
2007,08,01,17,19,25.60